FIN9LK ESGG-EFHK

Flight info

Callsign FIN9LK
Flight time 1h 11m
Altitude 39000
Route LABAN N873 DETSO DCT TUSNI DCT RIRIP Y364 LAKUT
Aircraft A319/M-SDE3FGHIRWY/LB1

Departure

Time 2026-04-26 17:39
Airport Göteborg Landvetter Airport (ESGG)

Arrival

Time 2026-04-26 18:50
Airport Helsinki Vantaa Airport (EFHK)
Time Latitude Longitude Altitude Speed Heading
2026-04-26 16:51 57.66886 12.29429 516 ft 0 kts 116°
2026-04-26 16:52 57.66886 12.29428 516 ft 0 kts 116°
2026-04-26 17:29 57.66892 12.29406 516 ft 4 kts 112°
2026-04-26 17:30 57.66900 12.29359 516 ft 4 kts 101°
2026-04-26 17:30 57.66902 12.29310 516 ft 4 kts 77°
2026-04-26 17:30 57.66892 12.29274 516 ft 2 kts 27°
2026-04-26 17:30 57.66891 12.29272 516 ft 0 kts 26°
2026-04-26 17:32 57.66892 12.29273 516 ft 1 kts 26°
2026-04-26 17:33 57.66922 12.29301 516 ft 7 kts 26°
2026-04-26 17:33 57.66975 12.29316 516 ft 8 kts 337°
2026-04-26 17:33 57.67014 12.29221 516 ft 12 kts 317°
2026-04-26 17:34 57.67263 12.29387 516 ft 24 kts 26°
2026-04-26 17:34 57.67411 12.29521 516 ft 23 kts 26°
2026-04-26 17:34 57.67536 12.29580 516 ft 14 kts 333°
2026-04-26 17:34 57.67582 12.29434 516 ft 9 kts 288°
2026-04-26 17:35 57.67586 12.29408 516 ft 0 kts 283°
2026-04-26 17:36 57.67586 12.29403 516 ft 2 kts 283°
2026-04-26 17:36 57.67589 12.29354 516 ft 5 kts 271°
2026-04-26 17:36 57.67578 12.29231 516 ft 15 kts 252°
2026-04-26 17:36 57.67521 12.29108 514 ft 10 kts 207°
2026-04-26 17:37 57.67508 12.29095 514 ft 0 kts 207°
2026-04-26 17:38 57.67507 12.29094 514 ft 1 kts 207°
2026-04-26 17:38 57.67482 12.29070 514 ft 17 kts 207°
2026-04-26 17:38 57.67102 12.28719 516 ft 101 kts 206°
2026-04-26 17:38 57.66264 12.27946 524 ft 163 kts 208°
2026-04-26 17:39 57.65222 12.26972 1135 ft 169 kts 209°
2026-04-26 17:39 57.64167 12.26010 1956 ft 172 kts 210°
2026-04-26 17:39 57.63006 12.25047 2458 ft 196 kts 199°
2026-04-26 17:39 57.61551 12.25271 2884 ft 226 kts 162°
2026-04-26 17:40 57.60075 12.26350 3843 ft 228 kts 157°
2026-04-26 17:40 57.59582 12.26753 4181 ft 229 kts 156°
2026-04-26 17:40 57.57353 12.29438 5698 ft 237 kts 121°
2026-04-26 17:40 57.56911 12.31332 6288 ft 239 kts 99°
2026-04-26 17:41 57.57022 12.34477 6784 ft 255 kts 66°
2026-04-26 17:41 57.57704 12.37661 7417 ft 272 kts 63°
2026-04-26 17:41 57.58430 12.40971 8337 ft 279 kts 63°
2026-04-26 17:41 57.59154 12.44310 9300 ft 284 kts 63°
2026-04-26 17:42 57.59904 12.47807 10280 ft 289 kts 63°
2026-04-26 17:42 57.60661 12.51340 10776 ft 310 kts 63°
2026-04-26 17:42 57.61571 12.55116 11278 ft 324 kts 55°
2026-04-26 17:42 57.62856 12.58572 12056 ft 325 kts 44°
2026-04-26 17:43 57.64485 12.61482 12883 ft 324 kts 32°
2026-04-26 17:43 57.66342 12.63889 13728 ft 327 kts 28°
2026-04-26 17:43 57.68234 12.66283 14508 ft 331 kts 28°
2026-04-26 17:43 57.70154 12.68715 15171 ft 335 kts 28°
2026-04-26 17:44 57.72091 12.71180 15916 ft 339 kts 28°
2026-04-26 17:44 57.74048 12.73683 16646 ft 343 kts 28°
2026-04-26 17:44 57.76029 12.76221 17381 ft 347 kts 28°
2026-04-26 17:44 57.78030 12.78791 18111 ft 351 kts 28°
2026-04-26 17:45 57.80055 12.81394 18790 ft 355 kts 28°
2026-04-26 17:45 57.82099 12.84025 19411 ft 358 kts 28°
2026-04-26 17:45 57.84162 12.86682 20108 ft 361 kts 28°
2026-04-26 17:45 57.86236 12.89359 20815 ft 362 kts 27°
2026-04-26 17:46 57.88320 12.92051 21472 ft 365 kts 27°
2026-04-26 17:46 57.90425 12.94766 22100 ft 369 kts 27°
2026-04-26 17:46 57.92550 12.97513 22705 ft 373 kts 27°
2026-04-26 17:46 57.94699 13.00298 23297 ft 377 kts 27°
2026-04-26 17:47 57.96868 13.03113 23876 ft 381 kts 27°
2026-04-26 17:47 57.98317 13.04996 24202 ft 383 kts 28°
2026-04-26 17:47 58.01267 13.08841 24856 ft 388 kts 28°
2026-04-26 17:47 58.03491 13.11750 25335 ft 391 kts 28°
2026-04-26 17:48 58.05731 13.14687 25819 ft 393 kts 28°
2026-04-26 17:48 58.07991 13.17651 26295 ft 396 kts 28°
2026-04-26 17:48 58.10263 13.20637 26763 ft 399 kts 28°
2026-04-26 17:48 58.12552 13.23647 27215 ft 402 kts 28°
2026-04-26 17:49 58.14857 13.26679 27681 ft 405 kts 28°
2026-04-26 17:49 58.17087 13.30031 28129 ft 415 kts 37°
2026-04-26 17:49 58.19062 13.34096 28577 ft 423 kts 43°
2026-04-26 17:49 58.20979 13.38358 29024 ft 426 kts 43°
2026-04-26 17:50 58.22912 13.42644 29459 ft 429 kts 43°
2026-04-26 17:50 58.24859 13.46954 29884 ft 432 kts 43°
2026-04-26 17:50 58.26823 13.51298 30302 ft 435 kts 43°
2026-04-26 17:50 58.28794 13.55674 30644 ft 437 kts 43°
2026-04-26 17:51 58.30775 13.60093 31022 ft 440 kts 43°
2026-04-26 17:51 58.32760 13.64535 31394 ft 442 kts 43°
2026-04-26 17:51 58.34750 13.69005 31755 ft 443 kts 44°
2026-04-26 17:51 58.36741 13.73497 32155 ft 444 kts 44°
2026-04-26 17:52 58.38726 13.77992 32636 ft 443 kts 44°
2026-04-26 17:52 58.40707 13.82474 33158 ft 441 kts 43°
2026-04-26 17:52 58.42678 13.86933 33660 ft 439 kts 43°
2026-04-26 17:52 58.44646 13.91384 34149 ft 438 kts 43°
2026-04-26 17:53 58.46605 13.95824 34554 ft 437 kts 43°
2026-04-26 17:53 58.48538 14.00213 34919 ft 437 kts 43°
2026-04-26 17:53 58.50492 14.04660 35266 ft 437 kts 43°
2026-04-26 17:54 58.54400 14.13577 35942 ft 437 kts 43°
2026-04-26 17:54 58.56347 14.18043 36295 ft 436 kts 43°
2026-04-26 17:54 58.58289 14.22510 36633 ft 436 kts 43°
2026-04-26 17:54 58.60157 14.27110 36930 ft 441 kts 50°
2026-04-26 17:55 58.61745 14.32188 37215 ft 445 kts 53°
2026-04-26 17:55 58.63287 14.37335 37481 ft 445 kts 53°
2026-04-26 17:55 58.64831 14.42493 37760 ft 445 kts 53°
2026-04-26 17:55 58.66374 14.47649 38025 ft 446 kts 53°
2026-04-26 17:56 58.67919 14.52812 38295 ft 446 kts 53°
2026-04-26 17:56 58.71007 14.63162 38833 ft 446 kts 53°
2026-04-26 17:57 58.74089 14.73544 39150 ft 447 kts 53°
2026-04-26 17:57 58.77169 14.83974 39177 ft 446 kts 53°
2026-04-26 17:58 58.83229 15.04683 39179 ft 444 kts 53°
2026-04-26 17:59 58.87770 15.20296 39171 ft 444 kts 53°
2026-04-26 17:59 58.90788 15.30728 39175 ft 445 kts 54°
2026-04-26 18:00 58.93799 15.41199 39202 ft 445 kts 54°
2026-04-26 18:00 58.96800 15.51690 39193 ft 444 kts 53°
2026-04-26 18:01 58.99787 15.62118 39180 ft 442 kts 53°
2026-04-26 18:01 59.02762 15.72572 39167 ft 443 kts 54°
2026-04-26 18:02 59.05225 15.81290 39166 ft 443 kts 54°
2026-04-26 18:02 59.08686 15.93590 39161 ft 444 kts 54°
2026-04-26 18:03 59.11638 16.04148 39162 ft 444 kts 54°
2026-04-26 18:03 59.14594 16.14734 39160 ft 445 kts 54°
2026-04-26 18:04 59.17534 16.25335 39158 ft 443 kts 54°
2026-04-26 18:05 59.21885 16.41129 39135 ft 440 kts 54°
2026-04-26 18:05 59.24758 16.51601 39132 ft 440 kts 54°
2026-04-26 18:06 59.27641 16.62176 39140 ft 441 kts 54°
2026-04-26 18:06 59.30524 16.72792 39144 ft 442 kts 54°
2026-04-26 18:07 59.33327 16.83508 39137 ft 447 kts 60°
2026-04-26 18:07 59.35706 16.94787 39135 ft 448 kts 60°
2026-04-26 18:08 59.38077 17.06090 39141 ft 448 kts 60°
2026-04-26 18:08 59.40446 17.17401 39127 ft 448 kts 60°
2026-04-26 18:09 59.42804 17.28747 39121 ft 449 kts 60°
2026-04-26 18:09 59.45155 17.40118 39109 ft 449 kts 60°
2026-04-26 18:10 59.47503 17.51521 39108 ft 450 kts 60°
2026-04-26 18:10 59.49837 17.62960 39110 ft 450 kts 60°
2026-04-26 18:11 59.52165 17.74410 39103 ft 450 kts 60°
2026-04-26 18:11 59.54484 17.85879 39131 ft 451 kts 61°
2026-04-26 18:12 59.56778 17.97282 39114 ft 450 kts 61°
2026-04-26 18:12 59.59078 18.08778 39112 ft 451 kts 61°
2026-04-26 18:13 59.61369 18.20304 39107 ft 451 kts 62°
2026-04-26 18:13 59.63652 18.31858 39105 ft 452 kts 62°
2026-04-26 18:14 59.65918 18.43452 39108 ft 452 kts 62°
2026-04-26 18:14 59.68178 18.55064 39104 ft 452 kts 62°
2026-04-26 18:15 59.70438 18.66685 39123 ft 453 kts 62°
2026-04-26 18:15 59.72683 18.78326 39098 ft 451 kts 63°
2026-04-26 18:16 59.74909 18.89938 39091 ft 450 kts 63°
2026-04-26 18:16 59.78229 19.07381 39090 ft 451 kts 63°
2026-04-26 18:17 59.80291 19.18295 39090 ft 451 kts 63°
2026-04-26 18:17 59.82004 19.27413 39086 ft 452 kts 63°
2026-04-26 18:18 59.83470 19.35256 39088 ft 452 kts 63°
2026-04-26 18:18 59.84584 19.41215 39087 ft 452 kts 63°
2026-04-26 18:19 59.85367 19.45414 39088 ft 452 kts 63°
2026-04-26 18:19 59.86418 19.51079 39087 ft 452 kts 63°
2026-04-26 18:20 59.87707 19.58048 39101 ft 452 kts 63°
2026-04-26 18:20 59.89150 19.65869 39092 ft 452 kts 64°
2026-04-26 18:21 59.92014 19.81523 39084 ft 451 kts 64°
2026-04-26 18:21 59.94150 19.93310 39081 ft 451 kts 64°
2026-04-26 18:22 59.96274 20.05087 39077 ft 451 kts 64°
2026-04-26 18:22 59.98041 20.14881 39076 ft 451 kts 64°
2026-04-26 18:23 60.00154 20.26686 39097 ft 451 kts 64°
2026-04-26 18:23 60.02248 20.38507 39080 ft 451 kts 65°
2026-04-26 18:24 60.04327 20.50319 39068 ft 450 kts 65°
2026-04-26 18:24 60.06396 20.62133 39055 ft 450 kts 65°
2026-04-26 18:25 60.08457 20.73961 39046 ft 449 kts 65°
2026-04-26 18:25 60.10507 20.85790 39043 ft 449 kts 65°
2026-04-26 18:26 60.12544 20.97628 39039 ft 449 kts 65°
2026-04-26 18:26 60.14461 21.09587 38814 ft 457 kts 73°
2026-04-26 18:27 60.14835 21.16030 37593 ft 472 kts 80°
2026-04-26 18:27 60.15059 21.22670 36319 ft 482 kts 81°
2026-04-26 18:27 60.15230 21.29413 35339 ft 484 kts 81°
2026-04-26 18:27 60.15372 21.36157 34549 ft 482 kts 80°
2026-04-26 18:28 60.15511 21.42850 33807 ft 477 kts 79°
2026-04-26 18:28 60.15659 21.49477 32990 ft 472 kts 78°
2026-04-26 18:28 60.15821 21.56014 32217 ft 466 kts 77°
2026-04-26 18:28 60.15996 21.62479 31495 ft 461 kts 77°
2026-04-26 18:29 60.16173 21.68861 30796 ft 455 kts 76°
2026-04-26 18:29 60.16346 21.75178 30116 ft 450 kts 75°
2026-04-26 18:29 60.16511 21.81389 29336 ft 445 kts 75°
2026-04-26 18:29 60.16667 21.87589 28632 ft 440 kts 76°
2026-04-26 18:30 60.16811 21.93674 27914 ft 434 kts 76°
2026-04-26 18:30 60.16949 21.99698 27200 ft 428 kts 76°
2026-04-26 18:30 60.17085 22.05634 26512 ft 423 kts 76°
2026-04-26 18:30 60.17220 22.11508 25844 ft 419 kts 76°
2026-04-26 18:31 60.17352 22.17319 25198 ft 414 kts 76°
2026-04-26 18:31 60.17481 22.23067 24587 ft 410 kts 76°
2026-04-26 18:31 60.17605 22.28689 24001 ft 406 kts 76°
2026-04-26 18:31 60.17728 22.34328 23394 ft 402 kts 76°
2026-04-26 18:32 60.17846 22.39905 22719 ft 398 kts 76°
2026-04-26 18:32 60.17957 22.45411 22151 ft 391 kts 77°
2026-04-26 18:32 60.18060 22.50840 21544 ft 386 kts 77°
2026-04-26 18:32 60.18157 22.56169 21082 ft 377 kts 78°
2026-04-26 18:33 60.18252 22.61376 20629 ft 369 kts 78°
2026-04-26 18:33 60.18347 22.66476 20170 ft 362 kts 79°
2026-04-26 18:33 60.18442 22.71470 19730 ft 354 kts 79°
2026-04-26 18:33 60.18536 22.76363 19297 ft 349 kts 79°
2026-04-26 18:34 60.18626 22.81221 18868 ft 347 kts 80°
2026-04-26 18:34 60.18714 22.86057 18444 ft 345 kts 81°
2026-04-26 18:34 60.18802 22.90870 17987 ft 344 kts 81°
2026-04-26 18:34 60.18884 22.95647 17566 ft 340 kts 82°
2026-04-26 18:35 60.18961 23.00380 17160 ft 337 kts 82°
2026-04-26 18:35 60.19033 23.05063 16747 ft 334 kts 82°
2026-04-26 18:35 60.19103 23.09708 16353 ft 331 kts 82°
2026-04-26 18:35 60.19173 23.14312 15964 ft 328 kts 82°
2026-04-26 18:36 60.19240 23.18877 15606 ft 326 kts 82°
2026-04-26 18:36 60.19306 23.23428 15206 ft 325 kts 82°
2026-04-26 18:36 60.19370 23.27952 14819 ft 323 kts 81°
2026-04-26 18:36 60.19433 23.32440 14462 ft 321 kts 81°
2026-04-26 18:37 60.19493 23.36919 14061 ft 320 kts 81°
2026-04-26 18:37 60.19553 23.41375 13673 ft 318 kts 81°
2026-04-26 18:37 60.19611 23.45796 13271 ft 315 kts 81°
2026-04-26 18:37 60.19663 23.50177 12890 ft 312 kts 81°
2026-04-26 18:38 60.19714 23.54515 12511 ft 309 kts 81°
2026-04-26 18:38 60.19764 23.58812 12138 ft 306 kts 81°
2026-04-26 18:38 60.19815 23.63075 11747 ft 304 kts 81°
2026-04-26 18:38 60.19866 23.67306 11366 ft 302 kts 81°
2026-04-26 18:39 60.19914 23.71515 10995 ft 299 kts 81°
2026-04-26 18:39 60.19959 23.75687 10608 ft 298 kts 81°
2026-04-26 18:39 60.20000 23.79823 10313 ft 293 kts 81°
2026-04-26 18:39 60.20040 23.83920 9892 ft 291 kts 81°
2026-04-26 18:40 60.20077 23.87907 9433 ft 287 kts 81°
2026-04-26 18:40 60.20110 23.91869 9037 ft 280 kts 81°
2026-04-26 18:40 60.20140 23.95724 8651 ft 273 kts 82°
2026-04-26 18:40 60.20168 23.99483 8277 ft 266 kts 81°
2026-04-26 18:41 60.20196 24.03156 7894 ft 260 kts 81°
2026-04-26 18:41 60.20226 24.06795 7665 ft 258 kts 81°
2026-04-26 18:41 60.20261 24.10373 7312 ft 260 kts 82°
2026-04-26 18:41 60.20294 24.14050 6912 ft 260 kts 82°
2026-04-26 18:42 60.20323 24.17640 6520 ft 261 kts 82°
2026-04-26 18:42 60.20350 24.21298 6095 ft 261 kts 82°
2026-04-26 18:42 60.20374 24.24951 5673 ft 260 kts 82°
2026-04-26 18:42 60.20396 24.28582 5266 ft 259 kts 82°
2026-04-26 18:43 60.20417 24.32199 4865 ft 258 kts 82°
2026-04-26 18:43 60.20433 24.35719 4717 ft 245 kts 82°
2026-04-26 18:43 60.20446 24.39075 4508 ft 236 kts 82°
2026-04-26 18:43 60.20463 24.42381 4143 ft 235 kts 82°
2026-04-26 18:44 60.20481 24.45653 3971 ft 234 kts 82°
2026-04-26 18:44 60.20499 24.48918 3848 ft 233 kts 82°
2026-04-26 18:44 60.20513 24.52179 3740 ft 233 kts 82°
2026-04-26 18:44 60.20528 24.55428 3636 ft 229 kts 82°
2026-04-26 18:45 60.20538 24.58562 3536 ft 219 kts 82°
2026-04-26 18:45 60.20548 24.61544 3466 ft 207 kts 81°
2026-04-26 18:45 60.20563 24.64411 3361 ft 202 kts 80°
2026-04-26 18:45 60.20843 24.66980 3249 ft 178 kts 58°
2026-04-26 18:46 60.21484 24.68965 3060 ft 164 kts 39°
2026-04-26 18:46 60.22246 24.70620 2869 ft 158 kts 38°
2026-04-26 18:46 60.22979 24.72215 2652 ft 152 kts 38°
2026-04-26 18:46 60.23681 24.73744 2449 ft 146 kts 38°
2026-04-26 18:47 60.24355 24.75212 2251 ft 140 kts 38°
2026-04-26 18:47 60.25009 24.76637 2055 ft 138 kts 38°
2026-04-26 18:47 60.25653 24.78041 1869 ft 136 kts 38°
2026-04-26 18:47 60.26295 24.79441 1680 ft 136 kts 39°
2026-04-26 18:48 60.26934 24.80837 1480 ft 133 kts 39°
2026-04-26 18:48 60.27531 24.82146 1293 ft 124 kts 39°
2026-04-26 18:48 60.28104 24.83400 1112 ft 120 kts 39°
2026-04-26 18:48 60.28672 24.84640 940 ft 121 kts 40°
2026-04-26 18:49 60.29250 24.85903 771 ft 124 kts 41°
2026-04-26 18:49 60.29838 24.87191 612 ft 125 kts 40°
2026-04-26 18:49 60.30423 24.88486 459 ft 125 kts 40°
2026-04-26 18:49 60.31012 24.89776 290 ft 126 kts 40°
2026-04-26 18:50 60.31596 24.91057 148 ft 116 kts 42°
2026-04-26 18:50 60.32052 24.92048 156 ft 72 kts 49°
2026-04-26 18:50 60.32310 24.92627 170 ft 33 kts 48°
2026-04-26 18:50 60.32401 24.92881 173 ft 22 kts 62°
2026-04-26 18:51 60.32457 24.93219 174 ft 27 kts 78°
2026-04-26 18:51 60.32496 24.93604 172 ft 29 kts 78°
2026-04-26 18:51 60.32577 24.94001 170 ft 32 kts 50°
2026-04-26 18:51 60.32727 24.94336 173 ft 32 kts 47°
2026-04-26 18:52 60.32877 24.94664 175 ft 32 kts 47°
2026-04-26 18:52 60.33023 24.94988 176 ft 31 kts 47°
2026-04-26 18:52 60.33170 24.95309 179 ft 29 kts 47°
2026-04-26 18:52 60.33169 24.95591 181 ft 23 kts 135°
2026-04-26 18:53 60.33041 24.95807 181 ft 24 kts 147°
2026-04-26 18:53 60.32884 24.95989 175 ft 28 kts 150°
2026-04-26 18:53 60.32710 24.96191 172 ft 30 kts 150°
2026-04-26 18:53 60.32580 24.96342 173 ft 13 kts 150°
2026-04-26 18:54 60.32502 24.96432 175 ft 13 kts 150°
2026-04-26 18:54 60.32417 24.96530 176 ft 15 kts 150°
2026-04-26 18:54 60.32307 24.96657 168 ft 21 kts 150°
2026-04-26 18:54 60.32170 24.96816 164 ft 24 kts 150°
2026-04-26 18:55 60.32020 24.96991 163 ft 25 kts 151°
2026-04-26 18:55 60.31919 24.97098 163 ft 10 kts 154°
2026-04-26 18:55 60.31876 24.97049 163 ft 8 kts 238°
2026-04-26 18:55 60.31866 24.97009 164 ft 2 kts 243°
2026-04-26 18:56 60.31862 24.96994 164 ft 0 kts 243°